M I D A S
Marine Information and Data Acquisition System
Tripno 1370 of the Zeeleeuw from 2007-12-18 07:33:26 to 2007-12-18 16:04:42
Back to CruiseResearch ActivitiesStationsMapUnderway DataData graphs

EquipmentUnitsComments
TimeDGPSUTC
LatitudeDGPSDM.mWGS84
LongitudeDGPSDM.mWGS84
SpeedMeteo Stationm/sRelative wind speed
DirectionMeteo StationdegRelative wind direction
TemperatureMeteo Stationdeg CelciusAir temperature
PressureMeteo StationPaAtmospheric pressure
HumidityMeteo Station%Relative humidity
Missing or incorrect values are displayed as -999
Metereological data collected by the RV Zeeleeuw from 2007-12-18 07:35:43 to 2007-12-18 16:13:49
Time Latitude Longitude Speed Direction Temperature Pressure Humidity
2007-12-18 07:36 51°13.61 2°56.041 1.5 34 -2.1 103590 92
2007-12-18 07:37 51°13.644 2°55.927 1.8 34 -2.1 103600 92
2007-12-18 07:38 51°13.677 2°55.814 1.8 250 -2.1 103600 92
2007-12-18 07:39 51°13.685 2°55.743 1.9 316 -2.1 103600 92
2007-12-18 07:40 51°13.697 2°55.754 3.3 354 -2.1 103600 92
2007-12-18 07:41 51°13.69 2°55.747 2 3 -2.1 103580 92
2007-12-18 07:42 51°13.734 2°55.726 3.3 3 -2.1 103580 92
2007-12-18 07:43 51°13.813 2°55.653 3.7 351 -2.1 103590 92
2007-12-18 07:44 51°13.909 2°55.585 3.2 355 -2.1 103590 92
2007-12-18 07:45 51°14.017 2°55.508 3.2 354 -2 103590 93
2007-12-18 07:46 51°14.143 2°55.416 4.2 346 -1.9 103590 93
2007-12-18 07:47 51°14.262 2°55.269 4.4 343 -2 103590 92
2007-12-18 07:48 51°14.363 2°55.024 3.4 344 -2 103580 92
2007-12-18 07:49 51°14.494 2°54.803 7.1 353 -1.7 103570 94
2007-12-18 07:50 51°14.698 2°54.731 8.8 351 -1.4 103570 95
2007-12-18 07:51 51°14.914 2°54.718 9.8 352 -1.2 103560 95
2007-12-18 07:52 51°15.129 2°54.693 9.6 356 -0.9 103560 95
2007-12-18 07:53 51°15.343 2°54.655 9.5 358 -0.6 103560 95
2007-12-18 07:54 51°15.556 2°54.616 10.2 355 -0.5 103560 95
2007-12-18 07:55 51°15.773 2°54.608 11.5 356 -0.3 103550 95
2007-12-18 07:56 51°15.99 2°54.616 11 356 -0.3 103550 94
2007-12-18 07:57 51°16.132 2°54.566 6 32 -0.2 103590 94
2007-12-18 07:58 51°16.172 2°54.465 5.2 36 -0.2 103610 94
2007-12-18 07:59 51°16.212 2°54.373 4.8 40 -999 103610 94
2007-12-18 08:00 51°16.241 2°54.299 6.7 37 -999 103620 93
2007-12-18 08:01 51°16.254 2°54.297 8.3 33 -0.1 103610 93
2007-12-18 08:02 51°16.265 2°54.299 7.4 24 -999 103610 93
2007-12-18 08:03 51°16.272 2°54.3 6.6 27 -999 103610 93
2007-12-18 08:04 51°16.278 2°54.302 6.3 30 0.1 103610 93
2007-12-18 08:05 51°16.285 2°54.303 6.6 33 -999 103610 92
2007-12-18 08:06 51°16.361 2°54.218 7.4 17 0.1 103590 93
2007-12-18 08:07 51°16.485 2°53.989 5 5 0.1 103610 93
2007-12-18 08:08 51°16.623 2°53.739 7.1 12 0.2 103610 93
2007-12-18 08:09 51°16.762 2°53.489 5.8 22 0.1 103610 92
2007-12-18 08:10 51°16.887 2°53.223 5.2 11 0.2 103620 92
2007-12-18 08:11 51°17.004 2°52.951 5.9 12 0.2 103610 93
2007-12-18 08:12 51°17.12 2°52.673 5.5 12 0.2 103620 91
2007-12-18 08:13 51°17.267 2°52.431 7.5 10 0.2 103610 91
2007-12-18 08:14 51°17.445 2°52.239 7.9 8 0.3 103620 90
2007-12-18 08:15 51°17.64 2°52.098 7 6 0.3 103590 90
2007-12-18 08:16 51°17.84 2°51.975 7.3 2 0.4 103590 89
2007-12-18 08:17 51°18.032 2°51.825 6.8 7 0.6 103610 89
2007-12-18 08:18 51°18.183 2°51.589 6.4 9 0.6 103620 87
2007-12-18 08:19 51°18.322 2°51.333 5.1 22 0.6 103620 86
2007-12-18 08:20 51°18.429 2°51.13 5.6 27 0.7 103620 86
2007-12-18 08:21 51°18.491 2°51.026 5.7 38 0.7 103630 85
2007-12-18 08:22 51°18.514 2°50.984 7.3 31 0.7 103630 85
2007-12-18 08:23 51°18.524 2°50.976 8.4 33 0.9 103630 87
2007-12-18 08:24 51°18.532 2°50.967 8 34 0.8 103630 84
2007-12-18 08:25 51°18.54 2°50.96 6.2 29 0.8 103620 85
2007-12-18 08:26 51°18.547 2°50.951 7.3 34 0.8 103630 85
2007-12-18 08:27 51°18.568 2°50.941 7.6 14 0.7 103620 84
2007-12-18 08:28 51°18.615 2°50.983 9.2 335 0.7 103620 84
2007-12-18 08:29 51°18.67 2°51.166 12 338 0.7 103600 84
2007-12-18 08:30 51°18.741 2°51.427 12.4 334 0.8 103610 85
2007-12-18 08:31 51°18.796 2°51.738 13.4 328 0.8 103590 84
2007-12-18 08:32 51°18.845 2°52.079 13 333 0.8 103600 84
2007-12-18 08:33 51°18.903 2°52.418 14.3 334 0.8 103600 83
2007-12-18 08:34 51°18.958 2°52.756 13.8 334 0.8 103600 83
2007-12-18 08:35 51°19.015 2°53.099 15.2 332 0.8 103600 83
2007-12-18 08:36 51°19.079 2°53.426 13.7 331 0.9 103600 84
2007-12-18 08:37 51°19.146 2°53.766 13 334 0.9 103610 83
2007-12-18 08:38 51°19.208 2°54.094 13 334 0.9 103600 82
2007-12-18 08:39 51°19.274 2°54.426 14.7 334 0.8 103610 83
2007-12-18 08:40 51°19.34 2°54.765 14.2 335 0.8 103610 81
2007-12-18 08:41 51°19.41 2°55.088 14.3 333 0.7 103600 80
2007-12-18 08:42 51°19.478 2°55.418 13.8 336 0.8 103610 81
2007-12-18 08:43 51°19.55 2°55.746 13.8 334 0.9 103610 81
2007-12-18 08:44 51°19.615 2°56.077 15.4 334 0.9 103620 81
2007-12-18 08:45 51°19.681 2°56.408 15.2 336 0.9 103610 82
2007-12-18 08:46 51°19.748 2°56.739 13.5 335 0.9 103620 82
2007-12-18 08:47 51°19.811 2°57.07 14.4 334 1 103600 84
2007-12-18 08:48 51°19.874 2°57.4 14.8 333 1.1 103600 84
2007-12-18 08:49 51°19.939 2°57.729 15.1 337 1 103610 83
2007-12-18 08:50 51°19.997 2°58.059 14.4 334 0.9 103610 84
2007-12-18 08:51 51°20.057 2°58.387 14.6 333 0.9 103620 83
2007-12-18 08:52 51°20.117 2°58.714 14.8 335 0.8 103610 84
2007-12-18 08:53 51°20.175 2°59.039 14.4 333 0.8 103630 83
2007-12-18 08:54 51°20.243 2°59.358 14.3 335 0.7 103600 83
2007-12-18 08:55 51°20.31 2°59.677 14.1 334 0.8 103620 84
2007-12-18 08:56 51°20.38 2°59.993 15.4 333 0.8 103620 84
2007-12-18 08:57 51°20.446 3°0.309 13.2 335 0.8 103620 84
2007-12-18 08:58 51°20.513 3°0.625 15.6 335 0.8 103620 84
2007-12-18 08:59 51°20.576 3°0.945 13.1 336 0.8 103610 84
2007-12-18 09:00 51°20.641 3°1.264 15.5 336 0.8 103620 84
2007-12-18 09:01 51°20.708 3°1.581 13.3 334 0.7 103620 83
2007-12-18 09:02 51°20.777 3°1.895 14.9 332 0.8 103600 84
2007-12-18 09:03 51°20.862 3°2.201 14.5 336 0.7 103610 84
2007-12-18 09:04 51°20.941 3°2.516 14.6 337 0.7 103600 84
2007-12-18 09:05 51°21.025 3°2.814 14.7 332 0.8 103600 84
2007-12-18 09:06 51°21.106 3°3.12 14.7 336 0.8 103610 85
2007-12-18 09:07 51°21.178 3°3.428 13.8 332 0.7 103620 84
2007-12-18 09:08 51°21.255 3°3.733 14 336 0.7 103620 84
2007-12-18 09:09 51°21.33 3°4.041 13.8 334 0.9 103630 85
2007-12-18 09:10 51°21.403 3°4.35 15.5 335 0.8 103620 84
2007-12-18 09:11 51°21.48 3°4.658 15.2 336 0.8 103610 84
2007-12-18 09:12 51°21.551 3°4.97 15.1 332 0.8 103620 84
2007-12-18 09:13 51°21.628 3°5.278 15.8 338 0.8 103610 85
2007-12-18 09:14 51°21.703 3°5.585 15.2 334 0.9 103620 85
2007-12-18 09:15 51°21.783 3°5.887 13.5 335 0.9 103620 85
2007-12-18 09:16 51°21.841 3°6.199 15 334 0.9 103630 85
2007-12-18 09:17 51°21.888 3°6.516 15.1 333 0.9 103620 85
2007-12-18 09:18 51°21.926 3°6.835 14.9 332 0.9 103630 85
2007-12-18 09:19 51°21.965 3°7.154 15.6 334 0.9 103640 85
2007-12-18 09:20 51°22.001 3°7.47 16.2 330 0.9 103630 85
2007-12-18 09:21 51°22.012 3°7.784 16.6 329 0.8 103630 84
2007-12-18 09:22 51°22.035 3°8.098 16.4 329 0.9 103630 84
2007-12-18 09:23 51°22.06 3°8.412 15.7 330 0.9 103630 84
2007-12-18 09:24 51°22.084 3°8.727 13.7 330 0.9 103630 84
2007-12-18 09:25 51°22.11 3°9.04 15.4 332 1 103640 85
2007-12-18 09:26 51°22.139 3°9.35 14.9 332 0.9 103640 83
2007-12-18 09:27 51°22.168 3°9.662 15.3 328 1 103630 84
2007-12-18 09:28 51°22.196 3°9.976 16.3 334 0.8 103630 83
2007-12-18 09:29 51°22.21 3°10.29 16 333 0.9 103630 84
2007-12-18 09:30 51°22.223 3°10.595 14.3 329 0.9 103640 83
2007-12-18 09:31 51°22.236 3°10.854 12.6 330 0.8 103650 82
2007-12-18 09:32 51°22.251 3°11.028 9.8 338 0.9 103670 84
2007-12-18 09:33 51°22.287 3°11.086 9.2 342 0.9 103670 83
2007-12-18 09:34 51°22.301 3°11.113 8.4 321 0.9 103680 84
2007-12-18 09:35 51°22.297 3°11.138 8.2 324 0.9 103670 84
2007-12-18 09:36 51°22.29 3°11.142 8.2 325 0.9 103680 83
2007-12-18 09:37 51°22.283 3°11.124 7.4 316 0.9 103680 83
2007-12-18 09:38 51°22.276 3°11.092 7.8 21 1 103690 84
2007-12-18 09:39 51°22.268 3°11.05 7.3 24 1.1 103690 84
2007-12-18 09:40 51°22.261 3°11.002 7.7 21 1.2 103700 84
2007-12-18 09:41 51°22.254 3°10.949 6.7 250 1.2 103700 83
2007-12-18 09:42 51°22.249 3°10.894 6.4 258 1.2 103700 83
2007-12-18 09:43 51°22.245 3°10.84 4.3 263 1.3 103700 84
2007-12-18 09:44 51°22.228 3°10.794 6.9 23 1.2 103700 83
2007-12-18 09:45 51°22.208 3°10.819 8.9 337 1.2 103690 84
2007-12-18 09:46 51°22.252 3°10.919 10.4 329 1.1 103680 83
2007-12-18 09:47 51°22.288 3°11.069 11.3 334 1.2 103680 85
2007-12-18 09:48 51°22.326 3°11.149 10.2 332 1.1 103690 84
2007-12-18 09:49 51°22.327 3°11.17 8.8 26 1.1 103700 85
2007-12-18 09:50 51°22.314 3°11.155 7.4 22 1 103700 85
2007-12-18 09:51 51°22.3 3°11.125 7.2 249 1.2 103700 87
2007-12-18 09:52 51°22.288 3°11.088 8.8 23 1.3 103700 87
2007-12-18 09:53 51°22.277 3°11.046 9.1 249 1.3 103700 86
2007-12-18 09:54 51°22.259 3°11.026 10 323 1.3 103700 85
2007-12-18 09:55 51°22.283 3°11.122 11.5 337 1.2 103690 84
2007-12-18 09:56 51°22.348 3°11.337 13.2 332 1.2 103690 85
2007-12-18 09:57 51°22.417 3°11.604 14.1 332 1.1 103690 85
2007-12-18 09:58 51°22.467 3°11.882 14.4 333 1.1 103680 85
2007-12-18 09:59 51°22.5 3°12.168 13.4 326 1 103680 85
2007-12-18 10:00 51°22.532 3°12.456 13.4 332 1 103700 85
2007-12-18 10:01 51°22.557 3°12.746 13.6 327 1 103680 86
2007-12-18 10:02 51°22.583 3°13.008 12.8 328 1 103680 85
2007-12-18 10:03 51°22.587 3°13.134 9.4 326 1.1 103690 86
2007-12-18 10:04 51°22.6 3°13.189 7.8 326 1 103690 86
2007-12-18 10:05 51°22.595 3°13.202 7.4 25 1 103690 86
2007-12-18 10:06 51°22.581 3°13.187 6.2 18 1.1 103700 87
2007-12-18 10:07 51°22.565 3°13.159 7.9 21 1.1 103700 87
2007-12-18 10:08 51°22.551 3°13.128 7.6 23 1.2 103700 87
2007-12-18 10:09 51°22.547 3°13.179 9.4 334 1.1 103690 86
2007-12-18 10:10 51°22.667 3°13.194 10.1 1 1 103680 86
2007-12-18 10:11 51°22.849 3°13.058 9.8 1 1 103690 87
2007-12-18 10:12 51°23.039 3°12.919 8.3 4 0.9 103680 88
2007-12-18 10:13 51°23.22 3°12.737 7.5 2 0.8 103690 87
2007-12-18 10:14 51°23.403 3°12.561 8.9 358 0.7 103680 88
2007-12-18 10:15 51°23.575 3°12.356 5.9 3 0.6 103680 88
2007-12-18 10:16 51°23.711 3°12.083 6.3 11 0.5 103690 88
2007-12-18 10:17 51°23.772 3°11.746 3 27 0.5 103690 88
2007-12-18 10:18 51°23.774 3°11.386 2.8 28 0.5 103700 88
2007-12-18 10:19 51°23.788 3°11.026 1.8 23 0.5 103710 88
2007-12-18 10:20 51°23.802 3°10.666 2.5 16 0.5 103700 88
2007-12-18 10:21 51°23.827 3°10.307 4.7 17 0.5 103700 88
2007-12-18 10:22 51°23.941 3°10.005 9.1 4 0.5 103680 87
2007-12-18 10:23 51°24.127 3°9.831 9 359 0.6 103670 88
2007-12-18 10:24 51°24.325 3°9.698 9.1 1 0.6 103660 87
2007-12-18 10:25 51°24.503 3°9.501 8.5 6 0.8 103660 88
2007-12-18 10:26 51°24.658 3°9.25 6.4 5 0.7 103680 87
2007-12-18 10:27 51°24.816 3°9.004 8.4 10 0.7 103680 87
2007-12-18 10:28 51°24.966 3°8.745 7.2 5 0.7 103700 88
2007-12-18 10:29 51°25.115 3°8.493 9.4 10 0.8 103690 88
2007-12-18 10:30 51°25.278 3°8.261 8.3 8 0.8 103690 87
2007-12-18 10:31 51°25.44 3°8.019 7.9 4 0.9 103690 88
2007-12-18 10:32 51°25.642 3°7.883 11.1 358 0.9 103680 88
2007-12-18 10:33 51°25.855 3°7.819 13.7 352 0.9 103680 89
2007-12-18 10:34 51°26.069 3°7.824 12.8 351 0.8 103670 88
2007-12-18 10:35 51°26.278 3°7.851 13.6 343 0.8 103660 88
2007-12-18 10:36 51°26.377 3°8.056 12.8 329 0.7 103710 88
2007-12-18 10:37 51°26.415 3°8.196 11.4 335 0.8 103700 88
2007-12-18 10:38 51°26.446 3°8.263 8.8 327 0.8 103700 88
2007-12-18 10:39 51°26.45 3°8.297 9.3 18 0.8 103690 88
2007-12-18 10:40 51°26.445 3°8.291 9.2 23 0.8 103700 89
2007-12-18 10:41 51°26.442 3°8.277 8.4 20 0.9 103700 89
2007-12-18 10:42 51°26.442 3°8.261 8.2 26 1 103700 89
2007-12-18 10:43 51°26.441 3°8.291 8.4 332 1 103680 89
2007-12-18 10:44 51°26.511 3°8.303 7.2 17 0.9 103670 87
2007-12-18 10:45 51°26.593 3°8.125 7.4 15 0.9 103690 88
2007-12-18 10:46 51°26.696 3°7.83 3.6 22 0.8 103690 88
2007-12-18 10:47 51°26.783 3°7.501 5.5 20 0.8 103700 89
2007-12-18 10:48 51°26.874 3°7.173 5.2 19 0.8 103710 89
2007-12-18 10:49 51°26.965 3°6.845 5.8 23 0.9 103700 89
2007-12-18 10:50 51°27.057 3°6.517 6.1 18 0.9 103700 89
2007-12-18 10:51 51°27.145 3°6.186 3.7 20 0.8 103700 89
2007-12-18 10:52 51°27.246 3°5.865 5.9 19 0.8 103700 89
2007-12-18 10:53 51°27.345 3°5.545 4.4 17 0.8 103700 89
2007-12-18 10:54 51°27.436 3°5.216 5.1 17 0.8 103710 89
2007-12-18 10:55 51°27.528 3°4.89 5.1 18 1 103690 90
2007-12-18 10:56 51°27.62 3°4.565 5 25 1 103720 89
2007-12-18 10:57 51°27.71 3°4.238 4.3 24 1 103710 88
2007-12-18 10:58 51°27.798 3°3.911 5.9 25 1 103700 89
2007-12-18 10:59 51°27.887 3°3.583 4.1 23 1.1 103700 88
2007-12-18 11:00 51°27.981 3°3.291 7 18 1 103710 88
2007-12-18 11:01 51°28.1 3°3.22 10.5 349 1.1 103690 88
2007-12-18 11:02 51°28.17 3°3.325 10.9 354 1.2 103690 88
2007-12-18 11:03 51°28.248 3°3.407 9.9 334 1.1 103700 87
2007-12-18 11:04 51°28.265 3°3.465 7.5 325 1.2 103700 88
2007-12-18 11:05 51°28.262 3°3.466 7.9 23 1.4 103700 88
2007-12-18 11:06 51°28.254 3°3.447 9.8 240 1.4 103700 87
2007-12-18 11:07 51°28.244 3°3.417 9.5 20 1.4 103700 87
2007-12-18 11:08 51°28.236 3°3.387 10.4 252 1.3 103710 87
2007-12-18 11:09 51°28.229 3°3.356 10.4 250 1.4 103710 87
2007-12-18 11:10 51°28.222 3°3.323 9.3 256 1.5 103700 88
2007-12-18 11:11 51°28.214 3°3.292 9.3 251 1.7 103710 88
2007-12-18 11:12 51°28.205 3°3.261 9.8 252 1.7 103700 88
2007-12-18 11:13 51°28.196 3°3.229 11.5 254 1.6 103710 87
2007-12-18 11:14 51°28.186 3°3.199 9.8 250 1.4 103710 86
2007-12-18 11:15 51°28.178 3°3.17 7.2 244 1.4 103710 86
2007-12-18 11:16 51°28.159 3°3.149 8.1 256 1.5 103710 87
2007-12-18 11:17 51°28.113 3°3.079 4.8 32 1.5 103710 87
2007-12-18 11:18 51°28.074 3°2.88 2.7 270 1.5 103710 86
2007-12-18 11:19 51°28.032 3°2.582 2.2 35 1.5 103700 87
2007-12-18 11:20 51°28.003 3°2.234 0.8 19 1.5 103700 87
2007-12-18 11:21 51°27.964 3°1.885 1.4 44 1.5 103700 87
2007-12-18 11:22 51°27.915 3°1.538 0.6 28 1.5 103690 87
2007-12-18 11:23 51°27.866 3°1.192 1.2 39 1.6 103700 87
2007-12-18 11:24 51°27.816 3°0.847 1.2 42 1.6 103690 86
2007-12-18 11:25 51°27.765 3°0.503 1 268 1.6 103690 87
2007-12-18 11:26 51°27.721 3°0.157 0.5 331 1.8 103690 87
2007-12-18 11:27 51°27.681 2°59.809 0.9 33 1.9 103690 88
2007-12-18 11:28 51°27.637 2°59.465 0.4 27 2 103690 88
2007-12-18 11:29 51°27.594 2°59.122 1.3 270 2.1 103690 87
2007-12-18 11:30 51°27.552 2°58.776 0.6 23 2.1 103690 87
2007-12-18 11:31 51°27.507 2°58.433 0.8 29 2 103690 86
2007-12-18 11:32 51°27.466 2°58.088 0.8 31 2 103690 86
2007-12-18 11:33 51°27.423 2°57.744 0.6 13 2.1 103680 87
2007-12-18 11:34 51°27.378 2°57.401 0.6 347 2.2 103680 87
2007-12-18 11:35 51°27.324 2°57.066 2.1 259 2.3 103690 87
2007-12-18 11:36 51°27.267 2°56.726 2.6 257 2.3 103680 87
2007-12-18 11:37 51°27.209 2°56.389 1.7 261 2.1 103690 85
2007-12-18 11:38 51°27.153 2°56.049 0.9 270 2 103680 85
2007-12-18 11:39 51°27.099 2°55.71 1.1 256 2 103690 85
2007-12-18 11:40 51°27.041 2°55.375 0.6 27 2 103690 85
2007-12-18 11:41 51°26.982 2°55.039 0.3 40 2 103690 85
2007-12-18 11:42 51°26.922 2°54.701 2 254 2 103690 85
2007-12-18 11:43 51°26.859 2°54.364 1.2 269 2.1 103680 86
2007-12-18 11:44 51°26.797 2°54.021 1 261 2.1 103690 86
2007-12-18 11:45 51°26.737 2°53.677 0.8 26 2.2 103680 85
2007-12-18 11:46 51°26.676 2°53.337 2.7 28 2.1 103680 85
2007-12-18 11:47 51°26.612 2°52.993 1.5 34 2.1 103680 84
2007-12-18 11:48 51°26.554 2°52.649 1.1 18 2.1 103680 84
2007-12-18 11:49 51°26.501 2°52.305 0.9 27 2 103680 83
2007-12-18 11:50 51°26.453 2°51.959 0.9 24 1.9 103670 84
2007-12-18 11:51 51°26.4 2°51.611 1 354 2 103670 84
2007-12-18 11:52 51°26.347 2°51.258 0.6 27 2.2 103670 85
2007-12-18 11:53 51°26.297 2°50.911 1.2 7 2.3 103670 85
2007-12-18 11:54 51°26.251 2°50.564 1.2 30 2.4 103670 84
2007-12-18 11:55 51°26.197 2°50.219 2.2 38 2.4 103660 84
2007-12-18 11:56 51°26.145 2°49.867 1.6 36 2.4 103670 84
2007-12-18 11:57 51°26.094 2°49.521 1 32 2.3 103660 83
2007-12-18 11:58 51°26.026 2°49.183 3 260 2.3 103660 83
2007-12-18 11:59 51°25.926 2°48.95 3.3 36 2.3 103660 84
2007-12-18 12:00 51°25.859 2°48.794 4.1 25 2.3 103670 83
2007-12-18 12:01 51°25.825 2°48.627 5.3 42 2.2 103660 81
2007-12-18 12:02 51°25.87 2°48.485 6 20 2.3 103650 82
2007-12-18 12:03 51°25.956 2°48.389 8.1 2 2.2 103650 80
2007-12-18 12:04 51°25.999 2°48.416 8.4 333 2.1 103650 81
2007-12-18 12:05 51°25.993 2°48.463 9.8 319 2.2 103650 82
2007-12-18 12:06 51°25.977 2°48.466 9.3 33 2.1 103660 81
2007-12-18 12:07 51°25.96 2°48.448 8.9 24 2.2 103660 82
2007-12-18 12:08 51°25.945 2°48.418 7.5 240 2.3 103670 82
2007-12-18 12:09 51°25.926 2°48.386 9.1 253 2.4 103660 83
2007-12-18 12:10 51°25.87 2°48.329 5.4 33 2.4 103660 82
2007-12-18 12:11 51°25.816 2°48.126 2.1 264 2.5 103660 83
2007-12-18 12:12 51°25.724 2°47.81 2.3 270 2.5 103660 83
2007-12-18 12:13 51°25.633 2°47.478 1.3 259 2.5 103650 83
2007-12-18 12:14 51°25.559 2°47.134 1.3 32 2.5 103650 83
2007-12-18 12:15 51°25.48 2°46.786 0.7 35 2.4 103660 83
2007-12-18 12:16 51°25.405 2°46.441 0.8 27 2.4 103660 83
2007-12-18 12:17 51°25.332 2°46.095 1 33 2.4 103660 82
2007-12-18 12:18 51°25.259 2°45.75 1 18 2.4 103660 82
2007-12-18 12:19 51°25.186 2°45.408 0.6 19 2.4 103660 82
2007-12-18 12:20 51°25.114 2°45.065 0.5 31 2.5 103650 82
2007-12-18 12:21 51°25.038 2°44.721 0.5 31 2.5 103660 82
2007-12-18 12:22 51°24.965 2°44.381 0.5 39 2.6 103650 83
2007-12-18 12:23 51°24.89 2°44.045 1.4 239 2.7 103650 84
2007-12-18 12:24 51°24.816 2°43.703 2.9 30 2.9 103650 84
2007-12-18 12:25 51°24.742 2°43.363 2.6 28 2.8 103660 82
2007-12-18 12:26 51°24.669 2°43.022 2.6 34 2.7 103660 81
2007-12-18 12:27 51°24.595 2°42.681 1.2 37 2.6 103660 80
2007-12-18 12:28 51°24.523 2°42.336 1.8 26 2.5 103660 80
2007-12-18 12:29 51°24.448 2°41.994 1.7 40 2.6 103650 81
2007-12-18 12:30 51°24.38 2°41.649 1.5 269 2.6 103660 81
2007-12-18 12:31 51°24.296 2°41.307 1.7 41 2.6 103660 80
2007-12-18 12:32 51°24.212 2°40.973 0.7 262 2.6 103660 81
2007-12-18 12:33 51°24.129 2°40.638 1.4 256 2.6 103650 81
2007-12-18 12:34 51°24.048 2°40.305 1.5 262 2.7 103650 81
2007-12-18 12:35 51°23.962 2°39.977 2.3 263 2.7 103660 81
2007-12-18 12:36 51°23.876 2°39.65 2.1 266 2.7 103660 81
2007-12-18 12:37 51°23.788 2°39.322 1.6 27 2.6 103660 80
2007-12-18 12:38 51°23.704 2°38.993 2.6 35 2.6 103650 80
2007-12-18 12:39 51°23.624 2°38.657 1.1 31 2.6 103650 79
2007-12-18 12:40 51°23.541 2°38.328 1.2 38 2.7 103650 80
2007-12-18 12:41 51°23.451 2°37.993 0.8 36 2.7 103650 80
2007-12-18 12:42 51°23.363 2°37.659 1.1 35 2.8 103650 80
2007-12-18 12:43 51°23.276 2°37.326 1.5 34 2.9 103650 80
2007-12-18 12:44 51°23.13 2°37.063 7.7 252 3 103640 80
2007-12-18 12:45 51°22.921 2°36.972 8.3 241 3 103620 80
2007-12-18 12:46 51°22.705 2°36.928 7 244 3.1 103620 80
2007-12-18 12:47 51°22.488 2°36.861 9.3 248 3.1 103620 79
2007-12-18 12:48 51°22.271 2°36.794 9.2 19 3.1 103620 79
2007-12-18 12:49 51°22.057 2°36.722 7.8 248 3.1 103620 79
2007-12-18 12:50 51°21.841 2°36.643 8.1 20 3.2 103630 79
2007-12-18 12:51 51°21.624 2°36.567 9.9 245 3.2 103610 79
2007-12-18 12:52 51°21.41 2°36.486 8 245 3.2 103610 78
2007-12-18 12:53 51°21.199 2°36.377 7.3 258 3.2 103620 78
2007-12-18 12:54 51°21.072 2°36.086 1 21 3.1 103630 77
2007-12-18 12:55 51°21.018 2°35.732 1.5 19 3 103630 77
2007-12-18 12:56 51°20.948 2°35.382 2.3 21 2.9 103630 76
2007-12-18 12:57 51°20.885 2°35.027 1.1 22 2.9 103640 77
2007-12-18 12:58 51°20.821 2°34.674 1.5 24 3 103630 78
2007-12-18 12:59 51°20.756 2°34.318 0.9 22 3.1 103630 78
2007-12-18 13:00 51°20.686 2°33.966 1.5 27 3.1 103630 78
2007-12-18 13:01 51°20.624 2°33.617 2.3 19 3.1 103620 78
2007-12-18 13:02 51°20.565 2°33.264 2.5 43 3.1 103620 77
2007-12-18 13:03 51°20.505 2°32.913 2.3 43 2.9 103620 77
2007-12-18 13:04 51°20.45 2°32.552 2.3 25 2.9 103620 77
2007-12-18 13:05 51°20.392 2°32.195 2.8 23 2.8 103620 77
2007-12-18 13:06 51°20.343 2°31.838 2 22 2.9 103610 78
2007-12-18 13:07 51°20.298 2°31.478 2.1 33 3 103620 79
2007-12-18 13:08 51°20.259 2°31.117 2.1 25 3.1 103610 79
2007-12-18 13:09 51°20.22 2°30.78 2.9 24 3.1 103620 79
2007-12-18 13:10 51°20.193 2°30.497 4.6 42 3.1 103610 79
2007-12-18 13:11 51°20.168 2°30.3 4.2 24 3.1 103610 80
2007-12-18 13:12 51°20.112 2°30.185 7.9 21 3 103620 78
2007-12-18 13:13 51°20.047 2°30.089 6.9 18 2.9 103610 78
2007-12-18 13:14 51°19.999 2°29.987 7.9 25 2.8 103620 78
2007-12-18 13:15 51°19.982 2°29.93 8.7 25 2.8 103610 79
2007-12-18 13:16 51°19.973 2°29.884 7.6 262 2.9 103600 80
2007-12-18 13:17 51°19.962 2°29.84 7.1 260 3 103600 80
2007-12-18 13:18 51°19.949 2°29.804 10.3 252 3.1 103600 81
2007-12-18 13:19 51°19.901 2°29.856 10.8 21 3.2 103570 80
2007-12-18 13:20 51°19.786 2°30.012 12.2 24 3.2 103560 79
2007-12-18 13:21 51°19.652 2°30.223 13 22 3.2 103550 79
2007-12-18 13:22 51°19.52 2°30.45 15.1 23 3.1 103540 79
2007-12-18 13:23 51°19.395 2°30.691 15.3 25 3.1 103550 80
2007-12-18 13:24 51°19.281 2°30.944 13.2 25 3 103550 78
2007-12-18 13:25 51°19.166 2°31.198 15.9 22 3 103550 79
2007-12-18 13:26 51°19.053 2°31.455 12.6 317 3 103540 80
2007-12-18 13:27 51°18.937 2°31.712 13.3 21 3 103550 80
2007-12-18 13:28 51°18.821 2°31.968 13.3 25 3 103530 79
2007-12-18 13:29 51°18.707 2°32.229 13.9 24 3.1 103540 81
2007-12-18 13:30 51°18.592 2°32.491 11.8 317 3 103540 80
2007-12-18 13:31 51°18.477 2°32.752 13.9 23 2.9 103530 79
2007-12-18 13:32 51°18.365 2°33.012 14.7 21 2.9 103540 80
2007-12-18 13:33 51°18.253 2°33.269 11.8 318 2.9 103540 78
2007-12-18 13:34 51°18.148 2°33.526 12.3 316 2.8 103540 78
2007-12-18 13:35 51°18.045 2°33.786 13.9 21 2.8 103550 78
2007-12-18 13:36 51°17.945 2°34.046 13.8 317 2.9 103540 79
2007-12-18 13:37 51°17.843 2°34.305 13.1 317 2.9 103550 80
2007-12-18 13:38 51°17.742 2°34.571 14.2 21 2.8 103540 79
2007-12-18 13:39 51°17.643 2°34.836 11.8 24 2.7 103540 79
2007-12-18 13:40 51°17.544 2°35.102 12.2 319 2.8 103540 81
2007-12-18 13:41 51°17.427 2°35.35 12.1 316 2.7 103540 80
2007-12-18 13:42 51°17.299 2°35.589 14.4 22 2.7 103530 80
2007-12-18 13:43 51°17.162 2°35.82 10.7 25 2.6 103530 79
2007-12-18 13:44 51°17.036 2°36.041 9.7 25 2.6 103540 80
2007-12-18 13:45 51°16.93 2°36.213 12.4 23 2.6 103540 80
2007-12-18 13:46 51°16.833 2°36.382 12.4 24 2.5 103530 80
2007-12-18 13:47 51°16.743 2°36.536 10.9 23 2.5 103540 80
2007-12-18 13:48 51°16.678 2°36.629 10.3 21 2.5 103550 80
2007-12-18 13:49 51°16.637 2°36.684 8.3 317 2.5 103550 79
2007-12-18 13:50 51°16.622 2°36.71 7.9 330 2.5 103560 79
2007-12-18 13:51 51°16.63 2°36.757 9.8 320 2.4 103560 79
2007-12-18 13:52 51°16.599 2°36.788 8.2 24 2.5 103540 80
2007-12-18 13:53 51°16.573 2°36.76 7.3 254 2.6 103550 81
2007-12-18 13:54 51°16.549 2°36.727 6.8 253 2.7 103550 81
2007-12-18 13:55 51°16.524 2°36.693 8.2 250 2.7 103560 81
2007-12-18 13:56 51°16.499 2°36.662 8.7 254 2.6 103550 81
2007-12-18 13:57 51°16.403 2°36.657 7.4 21 2.7 103560 82
2007-12-18 13:58 51°16.242 2°36.684 8.8 246 2.7 103560 81
2007-12-18 13:59 51°16.043 2°36.712 10.1 21 2.7 103560 82
2007-12-18 14:00 51°15.827 2°36.747 9.6 20 2.8 103550 82
2007-12-18 14:01 51°15.611 2°36.782 8.4 25 2.7 103550 82
2007-12-18 14:02 51°15.395 2°36.815 8.9 20 2.7 103560 82
2007-12-18 14:03 51°15.178 2°36.843 9.3 24 2.7 103540 82
2007-12-18 14:04 51°14.962 2°36.876 11.4 25 2.7 103540 83
2007-12-18 14:05 51°14.75 2°36.9 11.1 19 2.6 103550 83
2007-12-18 14:06 51°14.54 2°36.925 9.6 24 2.6 103550 83
2007-12-18 14:07 51°14.323 2°36.951 10.4 22 2.6 103540 83
2007-12-18 14:08 51°14.109 2°36.994 10.7 19 2.6 103530 83
2007-12-18 14:09 51°13.901 2°37.066 10 27 2.6 103530 82
2007-12-18 14:10 51°13.698 2°37.159 10.3 23 2.6 103530 83
2007-12-18 14:11 51°13.501 2°37.259 10.2 22 2.6 103530 83
2007-12-18 14:12 51°13.306 2°37.36 11.4 27 2.6 103520 83
2007-12-18 14:13 51°13.095 2°37.416 7.8 19 2.5 103530 83
2007-12-18 14:14 51°12.876 2°37.43 6.3 21 2.5 103520 84
2007-12-18 14:15 51°12.656 2°37.418 8.2 24 2.6 103530 84
2007-12-18 14:16 51°12.437 2°37.352 6 248 2.6 103530 84
2007-12-18 14:17 51°12.221 2°37.25 6 253 2.5 103530 84
2007-12-18 14:18 51°12.003 2°37.156 8 251 2.5 103540 83
2007-12-18 14:19 51°11.788 2°37.065 7.2 252 2.5 103530 83
2007-12-18 14:20 51°11.57 2°36.974 5.6 255 2.5 103530 83
2007-12-18 14:21 51°11.35 2°36.884 5.4 251 2.6 103520 84
2007-12-18 14:22 51°11.133 2°36.791 5.7 253 2.5 103530 83
2007-12-18 14:23 51°10.915 2°36.692 5.9 19 2.5 103540 84
2007-12-18 14:24 51°10.695 2°36.602 5.7 252 2.5 103540 83
2007-12-18 14:25 51°10.48 2°36.51 7.3 20 2.5 103530 83
2007-12-18 14:26 51°10.263 2°36.494 10.9 22 2.5 103520 84
2007-12-18 14:27 51°10.111 2°36.669 15 316 2.5 103500 83
2007-12-18 14:28 51°10.097 2°36.961 14.4 324 2.4 103490 83
2007-12-18 14:29 51°10.1 2°37.271 13.3 320 2.5 103500 83
2007-12-18 14:30 51°10.097 2°37.574 12.4 320 2.4 103490 82
2007-12-18 14:31 51°10.095 2°37.871 13.3 321 2.5 103490 83
2007-12-18 14:32 51°10.094 2°38.172 13 321 2.4 103500 83
2007-12-18 14:33 51°10.093 2°38.476 14.4 321 2.5 103500 83
2007-12-18 14:34 51°10.09 2°38.78 15.1 323 2.4 103500 82
2007-12-18 14:35 51°10.09 2°39.084 12.4 322 2.4 103500 82
2007-12-18 14:36 51°10.089 2°39.392 14.3 321 2.4 103490 83
2007-12-18 14:37 51°10.088 2°39.696 11.4 320 2.4 103500 82
2007-12-18 14:38 51°10.087 2°39.869 9.4 322 2.4 103520 82
2007-12-18 14:39 51°10.095 2°39.967 9.5 327 2.3 103530 81
2007-12-18 14:40 51°10.1 2°40.007 8.2 324 2.4 103530 82
2007-12-18 14:41 51°10.088 2°40 8.4 23 2.3 103530 81
2007-12-18 14:42 51°10.071 2°39.983 8.8 20 2.3 103520 81
2007-12-18 14:43 51°10.054 2°39.961 9.3 256 2.4 103530 81
2007-12-18 14:44 51°10.035 2°39.941 7.4 251 2.3 103530 81
2007-12-18 14:45 51°10.015 2°40.002 10.5 327 2.4 103510 82
2007-12-18 14:46 51°10.086 2°40.085 13.1 331 2.4 103510 82
2007-12-18 14:47 51°10.206 2°40.279 14.4 335 2.4 103520 81
2007-12-18 14:48 51°10.36 2°40.459 15.3 337 2.4 103510 81
2007-12-18 14:49 51°10.515 2°40.638 15.6 336 2.4 103510 81
2007-12-18 14:50 51°10.671 2°40.815 14.2 335 2.4 103520 81
2007-12-18 14:51 51°10.819 2°41 16 329 2.4 103510 82
2007-12-18 14:52 51°10.896 2°41.269 14.5 326 2.4 103500 81
2007-12-18 14:53 51°10.969 2°41.545 14.9 328 2.4 103510 82
2007-12-18 14:54 51°11.039 2°41.803 13.8 328 2.4 103510 81
2007-12-18 14:55 51°11.074 2°41.92 10.4 328 2.4 103530 81
2007-12-18 14:56 51°11.09 2°41.973 9 320 2.4 103530 82
2007-12-18 14:57 51°11.091 2°42.021 9.2 321 2.4 103530 82
2007-12-18 14:58 51°11.08 2°42.038 9.2 19 2.5 103530 84
2007-12-18 14:59 51°11.064 2°42.037 9.3 20 2.4 103530 83
2007-12-18 15:00 51°11.045 2°42.026 10.2 21 2.4 103540 84
2007-12-18 15:01 51°11.025 2°42.019 10.5 22 2.5 103540 85
2007-12-18 15:02 51°11.018 2°42.132 13.2 318 2.5 103510 84
2007-12-18 15:03 51°11.015 2°42.396 13.5 319 2.5 103490 85
2007-12-18 15:04 51°11.047 2°42.703 15.2 323 2.5 103500 85
2007-12-18 15:05 51°11.096 2°43.006 14.5 321 2.6 103500 86
2007-12-18 15:06 51°11.142 2°43.31 14.4 320 2.5 103500 86
2007-12-18 15:07 51°11.192 2°43.608 14.9 325 2.5 103510 85
2007-12-18 15:08 51°11.248 2°43.908 15.2 325 2.4 103510 85
2007-12-18 15:09 51°11.308 2°44.204 13.9 324 2.4 103510 85
2007-12-18 15:10 51°11.367 2°44.498 16.2 323 2.4 103500 85
2007-12-18 15:11 51°11.424 2°44.795 15.1 326 2.5 103510 86
2007-12-18 15:12 51°11.482 2°45.092 13.9 326 2.4 103500 85
2007-12-18 15:13 51°11.552 2°45.383 15.2 326 2.3 103500 85
2007-12-18 15:14 51°11.62 2°45.672 15 324 2.3 103500 85
2007-12-18 15:15 51°11.689 2°45.96 15 326 2.4 103510 85
2007-12-18 15:16 51°11.76 2°46.247 14 324 2.4 103510 86
2007-12-18 15:17 51°11.827 2°46.537 14.8 326 2.4 103500 86
2007-12-18 15:18 51°11.9 2°46.824 16.1 328 2.4 103510 87
2007-12-18 15:19 51°11.991 2°47.099 14.8 329 2.4 103510 87
2007-12-18 15:20 51°12.079 2°47.374 14.6 327 2.3 103510 87
2007-12-18 15:21 51°12.174 2°47.642 13.8 330 2.3 103520 87
2007-12-18 15:22 51°12.271 2°47.912 15.1 329 2.2 103510 86
2007-12-18 15:23 51°12.375 2°48.177 13.2 327 2.2 103520 86
2007-12-18 15:24 51°12.475 2°48.448 14.9 330 2.3 103520 87
2007-12-18 15:25 51°12.573 2°48.72 15.9 329 2.3 103530 87
2007-12-18 15:26 51°12.673 2°48.996 16.9 327 2.2 103520 86
2007-12-18 15:27 51°12.774 2°49.278 14.6 330 2.4 103530 89
2007-12-18 15:28 51°12.873 2°49.56 14.3 334 2.3 103520 87
2007-12-18 15:29 51°12.972 2°49.84 16.8 330 2.2 103530 87
2007-12-18 15:30 51°13.07 2°50.122 15.8 329 2.2 103520 88
2007-12-18 15:31 51°13.165 2°50.406 16.1 331 2.2 103530 88
2007-12-18 15:32 51°13.264 2°50.688 15.1 330 2 103530 87
2007-12-18 15:33 51°13.349 2°50.974 13.6 333 2 103530 88
2007-12-18 15:34 51°13.42 2°51.205 14 331 1.9 103530 88
2007-12-18 15:35 51°13.462 2°51.349 10.4 329 2 103550 89
2007-12-18 15:36 51°13.482 2°51.426 7.6 330 2 103550 89
2007-12-18 15:37 51°13.493 2°51.473 8.9 328 2 103550 89
2007-12-18 15:38 51°13.495 2°51.494 9.1 329 1.9 103550 89
2007-12-18 15:39 51°13.492 2°51.498 6.8 326 1.9 103550 90
2007-12-18 15:40 51°13.483 2°51.494 7.5 325 2 103550 90
2007-12-18 15:41 51°13.471 2°51.48 6 323 1.9 103540 90
2007-12-18 15:42 51°13.465 2°51.498 10 332 1.8 103530 90
2007-12-18 15:43 51°13.519 2°51.654 14.8 330 1.8 103530 90
2007-12-18 15:44 51°13.6 2°51.933 14.9 331 1.8 103520 90
2007-12-18 15:45 51°13.699 2°52.207 16.1 330 1.8 103520 90
2007-12-18 15:46 51°13.799 2°52.482 14.3 331 1.8 103520 91
2007-12-18 15:47 51°13.9 2°52.757 12.8 334 1.8 103520 90
2007-12-18 15:48 51°14.001 2°53.034 14.5 331 1.8 103530 91
2007-12-18 15:49 51°14.1 2°53.314 14.2 335 1.8 103530 91
2007-12-18 15:50 51°14.239 2°53.544 16.7 339 1.8 103510 91
2007-12-18 15:51 51°14.402 2°53.736 16.6 335 1.8 103510 91
2007-12-18 15:52 51°14.564 2°53.932 17.3 340 1.8 103520 91
2007-12-18 15:53 51°14.712 2°54.117 13.1 343 1.7 103520 91
2007-12-18 15:54 51°14.764 2°54.147 10.4 8 1.7 103530 90
2007-12-18 15:55 51°14.768 2°54.124 9.3 19 1.8 103540 91
2007-12-18 15:56 51°14.767 2°54.095 9.5 22 1.8 103540 90
2007-12-18 15:57 51°14.763 2°54.07 9.6 22 1.8 103540 91
2007-12-18 15:58 51°14.793 2°54.057 9.5 341 1.8 103530 91
2007-12-18 15:59 51°14.79 2°54.167 12.6 19 1.8 103530 91
2007-12-18 16:00 51°14.688 2°54.357 13 24 1.7 103520 90
2007-12-18 16:01 51°14.564 2°54.602 11.6 315 1.6 103510 90
2007-12-18 16:02 51°14.441 2°54.87 13 19 1.5 103510 89
2007-12-18 16:03 51°14.316 2°55.138 12.5 317 1.3 103520 89
2007-12-18 16:04 51°14.175 2°55.373 8.8 20 1.1 103540 89
2007-12-18 16:05 51°14.05 2°55.47 5.9 238 0.9 103560 89
2007-12-18 16:06 51°13.949 2°55.541 5.3 244 0.8 103560 90
2007-12-18 16:07 51°13.851 2°55.605 4.3 25 0.8 103560 90
2007-12-18 16:08 51°13.763 2°55.676 4.8 21 0.7 103550 90
2007-12-18 16:09 51°13.698 2°55.782 6 23 0.6 103550 90
2007-12-18 16:10 51°13.652 2°55.897 4.1 18 0.5 103550 90
2007-12-18 16:11 51°13.62 2°55.992 3.9 20 0.4 103550 90
2007-12-18 16:12 51°13.606 2°56.064 4.6 24 0.4 103550 90
2007-12-18 16:13 51°13.599 2°56.089 4.8 20 0.3 103560 91